Location: ????
(33.1659°N, 35.6604°E)
Time: 21:55:43
(UTC+00:00)

Cosmos 2341 Rocket - Pass Details

Date: 20 September 2019
Orbit: 967 x 1005 km, 82.9° (Epoch: 16 October)

Event Time Altitude Azimuth Distance (km) Brightness Sun altitude
Rises 17:38:17 0° 349° (N) 3,676 7.4 -25.6°
Reaches altitude 10° 17:40:50 10° 347° (NNW) 2,721 6.7 -26.1°
Maximum altitude 17:46:57 62° 268° (W) 1,078 4.3 -27.3°
Enters shadow 17:51:23 19° 192° (SSW) 2,108 5.6 -28.2°
